CES8667 ZGGG-ZSAM

Flight info

Callsign CES8667
Flight time 0h 58m
Altitude 26600
Route LMN9 LMN G471 XEBUL DCT NUVGA DCT VETIB W155 TEBON TEBON8X
Aircraft B738/M-SDE2E3FGHIRWXY/LB1

Departure

Time 2026-05-06 16:20
Airport Guangzhou Baiyun International Airport (ZGGG)

Arrival

Time 2026-05-06 17:19
Airport Xiamen Gaoqi International Airport (ZSAM)
Time Latitude Longitude Altitude Speed Heading
2026-05-06 15:48 23.38599 113.29103 58 ft 0 kts 123°
2026-05-06 16:03 23.38601 113.29099 51 ft 3 kts 123°
2026-05-06 16:04 23.38617 113.29075 54 ft 4 kts 129°
2026-05-06 16:04 23.38635 113.29053 49 ft 4 kts 135°
2026-05-06 16:04 23.38655 113.29034 51 ft 4 kts 142°
2026-05-06 16:04 23.38677 113.29017 52 ft 4 kts 150°
2026-05-06 16:05 23.38701 113.29005 51 ft 4 kts 165°
2026-05-06 16:05 23.38725 113.29002 54 ft 2 kts 193°
2026-05-06 16:05 23.38726 113.29003 55 ft 1 kts 194°
2026-05-06 16:11 23.38721 113.29002 58 ft 3 kts 191°
2026-05-06 16:11 23.38678 113.28992 53 ft 9 kts 193°
2026-05-06 16:12 23.38603 113.28971 52 ft 10 kts 194°
2026-05-06 16:12 23.38537 113.28954 54 ft 11 kts 194°
2026-05-06 16:12 23.38475 113.28931 57 ft 8 kts 218°
2026-05-06 16:12 23.38464 113.28863 56 ft 12 kts 282°
2026-05-06 16:13 23.38474 113.28787 57 ft 11 kts 256°
2026-05-06 16:13 23.38403 113.28737 55 ft 15 kts 194°
2026-05-06 16:13 23.38327 113.28716 50 ft 10 kts 193°
2026-05-06 16:13 23.38245 113.28694 53 ft 15 kts 193°
2026-05-06 16:14 23.38132 113.28664 54 ft 19 kts 193°
2026-05-06 16:14 23.38041 113.28639 54 ft 14 kts 194°
2026-05-06 16:14 23.37942 113.28612 55 ft 11 kts 194°
2026-05-06 16:14 23.37937 113.28611 56 ft 0 kts 194°
2026-05-06 16:16 23.37934 113.28610 56 ft 2 kts 193°
2026-05-06 16:17 23.37901 113.28602 53 ft 8 kts 193°
2026-05-06 16:17 23.37831 113.28583 54 ft 13 kts 193°
2026-05-06 16:17 23.37757 113.28564 54 ft 8 kts 193°
2026-05-06 16:17 23.37696 113.28534 53 ft 12 kts 230°
2026-05-06 16:18 23.37681 113.28500 52 ft 6 kts 257°
2026-05-06 16:18 23.37683 113.28465 50 ft 0 kts 279°
2026-05-06 16:18 23.37687 113.28445 54 ft 5 kts 282°
2026-05-06 16:19 23.37705 113.28390 56 ft 10 kts 308°
2026-05-06 16:19 23.37777 113.28375 56 ft 13 kts 13°
2026-05-06 16:19 23.37789 113.28378 56 ft 0 kts 13°
2026-05-06 16:19 23.37790 113.28379 55 ft 1 kts 13°
2026-05-06 16:20 23.37928 113.28414 54 ft 54 kts 14°
2026-05-06 16:20 23.38532 113.28577 53 ft 123 kts 14°
2026-05-06 16:20 23.39546 113.28849 105 ft 173 kts 14°
2026-05-06 16:20 23.40736 113.29165 755 ft 178 kts 14°
2026-05-06 16:21 23.41997 113.29436 1405 ft 183 kts
2026-05-06 16:21 23.43268 113.29542 2255 ft 189 kts
2026-05-06 16:21 23.44691 113.29478 2661 ft 222 kts 354°
2026-05-06 16:21 23.46310 113.29177 2933 ft 249 kts 345°
2026-05-06 16:22 23.47982 113.28586 2974 ft 256 kts 338°
2026-05-06 16:22 23.49620 113.27859 2999 ft 255 kts 336°
2026-05-06 16:22 23.51254 113.27132 3012 ft 255 kts 337°
2026-05-06 16:22 23.52923 113.26488 2988 ft 256 kts 350°
2026-05-06 16:23 23.54723 113.26629 3095 ft 270 kts 12°
2026-05-06 16:23 23.56607 113.27024 3857 ft 278 kts 10°
2026-05-06 16:23 23.58508 113.27409 4880 ft 279 kts 12°
2026-05-06 16:23 23.60285 113.28280 5773 ft 286 kts 39°
2026-05-06 16:24 23.61493 113.29980 6668 ft 289 kts 67°
2026-05-06 16:24 23.62068 113.32091 7487 ft 294 kts 78°
2026-05-06 16:24 23.62506 113.34287 8296 ft 299 kts 78°
2026-05-06 16:24 23.62950 113.36521 9127 ft 305 kts 78°
2026-05-06 16:25 23.63411 113.38797 9928 ft 310 kts 77°
2026-05-06 16:25 23.63896 113.41125 10491 ft 325 kts 77°
2026-05-06 16:25 23.64410 113.43570 10773 ft 347 kts 77°
2026-05-06 16:25 23.64959 113.46165 11407 ft 354 kts 77°
2026-05-06 16:26 23.65513 113.48787 12177 ft 357 kts 77°
2026-05-06 16:26 23.66073 113.51437 12933 ft 361 kts 77°
2026-05-06 16:26 23.66638 113.54113 13659 ft 366 kts 77°
2026-05-06 16:26 23.67212 113.56834 14289 ft 371 kts 77°
2026-05-06 16:27 23.67769 113.59585 14926 ft 375 kts 81°
2026-05-06 16:27 23.67886 113.62320 15545 ft 377 kts 92°
2026-05-06 16:27 23.67775 113.65185 16180 ft 381 kts 94°
2026-05-06 16:27 23.67618 113.68088 16814 ft 385 kts 94°
2026-05-06 16:28 23.67472 113.70739 17368 ft 389 kts 94°
2026-05-06 16:28 23.67319 113.73690 18002 ft 392 kts 93°
2026-05-06 16:28 23.67178 113.76668 18561 ft 395 kts 93°
2026-05-06 16:28 23.67046 113.79673 19100 ft 398 kts 93°
2026-05-06 16:29 23.66918 113.82699 19621 ft 402 kts 93°
2026-05-06 16:29 23.66791 113.85734 20228 ft 401 kts 93°
2026-05-06 16:29 23.66667 113.88754 20530 ft 398 kts 92°
2026-05-06 16:29 23.66543 113.91763 20564 ft 401 kts 93°
2026-05-06 16:30 23.66418 113.94805 20565 ft 400 kts 93°
2026-05-06 16:30 23.66334 113.96818 20567 ft 399 kts 93°
2026-05-06 16:30 23.66167 114.00833 20568 ft 398 kts 93°
2026-05-06 16:30 23.66041 114.03843 20580 ft 398 kts 93°
2026-05-06 16:31 23.65914 114.06853 20581 ft 398 kts 93°
2026-05-06 16:31 23.65786 114.09856 20569 ft 399 kts 93°
2026-05-06 16:31 23.65657 114.12878 20575 ft 398 kts 93°
2026-05-06 16:31 23.65528 114.15891 20576 ft 399 kts 93°
2026-05-06 16:32 23.65399 114.18909 20581 ft 399 kts 93°
2026-05-06 16:32 23.65270 114.21924 20571 ft 399 kts 93°
2026-05-06 16:32 23.65139 114.24946 20572 ft 400 kts 93°
2026-05-06 16:32 23.65010 114.27965 20572 ft 400 kts 91°
2026-05-06 16:33 23.65337 114.30954 20562 ft 399 kts 71°
2026-05-06 16:33 23.66530 114.33625 20577 ft 395 kts 53°
2026-05-06 16:33 23.68387 114.35785 20577 ft 390 kts 36°
2026-05-06 16:34 23.72717 114.39343 20579 ft 391 kts 33°
2026-05-06 16:34 23.74912 114.41087 20565 ft 391 kts 33°
2026-05-06 16:34 23.77105 114.42839 20568 ft 391 kts 33°
2026-05-06 16:34 23.79291 114.44603 20569 ft 391 kts 34°
2026-05-06 16:35 23.81467 114.46371 20576 ft 391 kts 34°
2026-05-06 16:35 23.83643 114.48150 20572 ft 391 kts 34°
2026-05-06 16:35 23.85809 114.49926 20572 ft 391 kts 34°
2026-05-06 16:35 23.87979 114.51709 20571 ft 391 kts 34°
2026-05-06 16:36 23.90154 114.53498 20568 ft 391 kts 34°
2026-05-06 16:36 23.92320 114.55280 20566 ft 391 kts 34°
2026-05-06 16:36 23.94486 114.57063 20567 ft 390 kts 34°
2026-05-06 16:36 23.96652 114.58847 20574 ft 390 kts 34°
2026-05-06 16:37 23.98814 114.60628 20579 ft 390 kts 34°
2026-05-06 16:37 23.99732 114.61385 20572 ft 390 kts 34°
2026-05-06 16:38 24.00843 114.62301 20573 ft 390 kts 34°
2026-05-06 16:38 24.03003 114.64081 20578 ft 390 kts 34°
2026-05-06 16:38 24.05160 114.65861 20566 ft 389 kts 34°
2026-05-06 16:39 24.07316 114.67640 20576 ft 389 kts 34°
2026-05-06 16:39 24.09470 114.69419 20578 ft 389 kts 34°
2026-05-06 16:39 24.11626 114.71199 20568 ft 389 kts 34°
2026-05-06 16:39 24.13784 114.72983 20579 ft 389 kts 34°
2026-05-06 16:40 24.15936 114.74762 20583 ft 389 kts 34°
2026-05-06 16:40 24.18089 114.76542 20575 ft 389 kts 33°
2026-05-06 16:40 24.20236 114.78319 20575 ft 389 kts 33°
2026-05-06 16:40 24.22393 114.80104 20571 ft 389 kts 33°
2026-05-06 16:41 24.24549 114.81889 20571 ft 389 kts 34°
2026-05-06 16:41 24.26474 114.83947 20558 ft 395 kts 52°
2026-05-06 16:41 24.27675 114.86665 20580 ft 399 kts 72°
2026-05-06 16:41 24.28007 114.89679 20578 ft 402 kts 92°
2026-05-06 16:42 24.27791 114.92727 20578 ft 402 kts 95°
2026-05-06 16:42 24.27505 114.95770 20585 ft 403 kts 96°
2026-05-06 16:42 24.27206 114.98795 20577 ft 403 kts 96°
2026-05-06 16:42 24.26911 115.01848 20570 ft 404 kts 95°
2026-05-06 16:43 24.26628 115.04904 20569 ft 404 kts 95°
2026-05-06 16:43 24.26355 115.07963 20571 ft 404 kts 95°
2026-05-06 16:43 24.26088 115.11022 20563 ft 404 kts 95°
2026-05-06 16:43 24.25824 115.14083 20567 ft 404 kts 95°
2026-05-06 16:44 24.25561 115.17145 20569 ft 404 kts 95°
2026-05-06 16:44 24.25299 115.20193 20571 ft 404 kts 95°
2026-05-06 16:44 24.25034 115.23262 20574 ft 404 kts 95°
2026-05-06 16:44 24.24769 115.26322 20589 ft 402 kts 95°
2026-05-06 16:45 24.24505 115.29365 20637 ft 402 kts 95°
2026-05-06 16:45 24.24239 115.32421 20657 ft 405 kts 95°
2026-05-06 16:45 24.23972 115.35486 20663 ft 405 kts 95°
2026-05-06 16:45 24.23705 115.38545 20664 ft 404 kts 95°
2026-05-06 16:46 24.23438 115.41594 20661 ft 404 kts 95°
2026-05-06 16:46 24.23170 115.44655 20671 ft 403 kts 95°
2026-05-06 16:46 24.22932 115.47711 20669 ft 403 kts 94°
2026-05-06 16:46 24.22719 115.50760 20671 ft 403 kts 93°
2026-05-06 16:47 24.22513 115.53825 20670 ft 404 kts 93°
2026-05-06 16:47 24.22308 115.56884 20678 ft 404 kts 93°
2026-05-06 16:47 24.22099 115.59952 20671 ft 404 kts 93°
2026-05-06 16:47 24.21906 115.62750 20665 ft 405 kts 93°
2026-05-06 16:48 24.21693 115.65815 20665 ft 405 kts 93°
2026-05-06 16:48 24.21476 115.68888 20674 ft 406 kts 94°
2026-05-06 16:48 24.21256 115.72011 20691 ft 419 kts 94°
2026-05-06 16:48 24.21027 115.75241 20689 ft 434 kts 94°
2026-05-06 16:49 24.20789 115.78579 20682 ft 447 kts 94°
2026-05-06 16:49 24.20544 115.82010 20687 ft 458 kts 94°
2026-05-06 16:49 24.20292 115.85517 20688 ft 467 kts 94°
2026-05-06 16:49 24.20034 115.89089 20672 ft 476 kts 94°
2026-05-06 16:50 24.19772 115.92716 20675 ft 483 kts 94°
2026-05-06 16:50 24.19505 115.96393 20675 ft 489 kts 94°
2026-05-06 16:50 24.19234 116.00115 20678 ft 494 kts 94°
2026-05-06 16:50 24.18959 116.03874 20677 ft 496 kts 94°
2026-05-06 16:51 24.18683 116.07625 20668 ft 494 kts 94°
2026-05-06 16:51 24.18407 116.11371 20673 ft 494 kts 94°
2026-05-06 16:51 24.18133 116.15087 20681 ft 493 kts 94°
2026-05-06 16:51 24.17855 116.18837 20679 ft 494 kts 94°
2026-05-06 16:52 24.17577 116.22582 20678 ft 494 kts 94°
2026-05-06 16:52 24.17299 116.26324 20680 ft 494 kts 94°
2026-05-06 16:52 24.17019 116.30069 20681 ft 495 kts 94°
2026-05-06 16:52 24.16738 116.33811 20680 ft 496 kts 94°
2026-05-06 16:53 24.16455 116.37585 20686 ft 496 kts 94°
2026-05-06 16:53 24.16171 116.41343 20680 ft 497 kts 94°
2026-05-06 16:53 24.15894 116.45108 20680 ft 497 kts 93°
2026-05-06 16:53 24.15702 116.48870 20683 ft 497 kts 91°
2026-05-06 16:54 24.15569 116.52653 20678 ft 497 kts 91°
2026-05-06 16:54 24.15454 116.56357 20676 ft 477 kts 91°
2026-05-06 16:54 24.15355 116.59472 20667 ft 459 kts 91°
2026-05-06 16:54 24.15233 116.62934 20661 ft 440 kts 91°
2026-05-06 16:55 24.15110 116.66198 20676 ft 422 kts 91°
2026-05-06 16:55 24.14991 116.69198 20538 ft 411 kts 91°
2026-05-06 16:55 24.14867 116.72302 20226 ft 405 kts 91°
2026-05-06 16:55 24.14744 116.75350 19870 ft 402 kts 91°
2026-05-06 16:56 24.14620 116.78401 19489 ft 399 kts 91°
2026-05-06 16:56 24.14497 116.81417 19130 ft 397 kts 92°
2026-05-06 16:56 24.14373 116.84426 18709 ft 396 kts 92°
2026-05-06 16:56 24.14259 116.87420 18331 ft 394 kts 91°
2026-05-06 16:57 24.14213 116.90406 17891 ft 392 kts 90°
2026-05-06 16:57 24.14204 116.93371 17483 ft 390 kts 90°
2026-05-06 16:57 24.14202 116.96322 17075 ft 387 kts 90°
2026-05-06 16:57 24.14199 116.99250 16694 ft 384 kts 90°
2026-05-06 16:58 24.14190 117.02153 16321 ft 381 kts 90°
2026-05-06 16:58 24.14176 117.05012 16226 ft 366 kts 91°
2026-05-06 16:58 24.14160 117.07684 16341 ft 341 kts 91°
2026-05-06 16:58 24.14143 117.10201 16216 ft 321 kts 91°
2026-05-06 16:59 24.14128 117.12568 16136 ft 302 kts 91°
2026-05-06 16:59 24.14112 117.14804 16025 ft 288 kts 91°
2026-05-06 16:59 24.14095 117.16934 15911 ft 273 kts 91°
2026-05-06 16:59 24.14079 117.18956 15807 ft 258 kts 91°
2026-05-06 17:00 24.14064 117.20866 15633 ft 247 kts 91°
2026-05-06 17:00 24.14049 117.22737 15313 ft 245 kts 92°
2026-05-06 17:00 24.14033 117.24591 14999 ft 244 kts 92°
2026-05-06 17:00 24.14017 117.26435 14694 ft 242 kts 92°
2026-05-06 17:01 24.14001 117.28265 14376 ft 241 kts 93°
2026-05-06 17:01 24.13985 117.30104 14029 ft 240 kts 93°
2026-05-06 17:01 24.13970 117.31917 13760 ft 237 kts 93°
2026-05-06 17:01 24.13954 117.33704 13424 ft 234 kts 94°
2026-05-06 17:02 24.13938 117.35484 13082 ft 234 kts 93°
2026-05-06 17:02 24.13922 117.37254 12781 ft 232 kts 93°
2026-05-06 17:02 24.13906 117.39015 12393 ft 232 kts 94°
2026-05-06 17:02 24.13890 117.40768 12062 ft 230 kts 94°
2026-05-06 17:03 24.13871 117.42508 11744 ft 228 kts 93°
2026-05-06 17:03 24.13856 117.44228 11423 ft 226 kts 93°
2026-05-06 17:03 24.13840 117.45949 11090 ft 227 kts 93°
2026-05-06 17:03 24.13824 117.47662 10780 ft 225 kts 93°
2026-05-06 17:04 24.13832 117.49361 10495 ft 224 kts 84°
2026-05-06 17:04 24.14435 117.50901 10141 ft 222 kts 47°
2026-05-06 17:04 24.15460 117.52140 9859 ft 220 kts 44°
2026-05-06 17:04 24.16486 117.53353 9594 ft 215 kts 44°
2026-05-06 17:05 24.17496 117.54550 9374 ft 214 kts 44°
2026-05-06 17:05 24.18504 117.55746 9155 ft 214 kts 44°
2026-05-06 17:05 24.19513 117.56946 8948 ft 216 kts 44°
2026-05-06 17:05 24.20536 117.58165 8723 ft 217 kts 44°
2026-05-06 17:06 24.21553 117.59379 8510 ft 216 kts 44°
2026-05-06 17:06 24.22566 117.60589 8293 ft 216 kts 45°
2026-05-06 17:06 24.23564 117.61785 8039 ft 211 kts 45°
2026-05-06 17:06 24.24547 117.62963 7851 ft 207 kts 44°
2026-05-06 17:07 24.25511 117.64115 7640 ft 207 kts 44°
2026-05-06 17:07 24.26483 117.65280 7455 ft 207 kts 44°
2026-05-06 17:07 24.27453 117.66441 7239 ft 207 kts 44°
2026-05-06 17:07 24.28418 117.67597 7033 ft 207 kts 44°
2026-05-06 17:08 24.29388 117.68760 6832 ft 206 kts 44°
2026-05-06 17:08 24.30355 117.69921 6613 ft 207 kts 44°
2026-05-06 17:08 24.31322 117.71082 6414 ft 206 kts 44°
2026-05-06 17:08 24.32279 117.72233 6192 ft 203 kts 45°
2026-05-06 17:09 24.33217 117.73360 5965 ft 198 kts 45°
2026-05-06 17:09 24.34128 117.74456 5800 ft 191 kts 45°
2026-05-06 17:09 24.35009 117.75514 5721 ft 186 kts 45°
2026-05-06 17:09 24.35893 117.76574 5673 ft 192 kts 45°
2026-05-06 17:10 24.36804 117.77667 5588 ft 196 kts 45°
2026-05-06 17:10 24.37721 117.78770 5515 ft 195 kts 45°
2026-05-06 17:10 24.38630 117.79864 5420 ft 193 kts 45°
2026-05-06 17:10 24.39511 117.80960 5323 ft 192 kts 54°
2026-05-06 17:11 24.39865 117.82343 5222 ft 189 kts 89°
2026-05-06 17:11 24.39947 117.83797 5034 ft 194 kts 85°
2026-05-06 17:11 24.40066 117.85277 4857 ft 195 kts 85°
2026-05-06 17:11 24.40183 117.86743 4641 ft 192 kts 85°
2026-05-06 17:12 24.40295 117.88177 4442 ft 187 kts 85°
2026-05-06 17:12 24.40402 117.89583 4172 ft 186 kts 85°
2026-05-06 17:12 24.40509 117.91010 3815 ft 190 kts 85°
2026-05-06 17:12 24.40621 117.92459 3465 ft 192 kts 83°
2026-05-06 17:13 24.41080 117.93804 3085 ft 189 kts 56°
2026-05-06 17:13 24.41808 117.94951 2781 ft 175 kts 55°
2026-05-06 17:13 24.42495 117.95994 2405 ft 163 kts 53°
2026-05-06 17:13 24.43129 117.96910 2333 ft 138 kts 53°
2026-05-06 17:14 24.43719 117.97749 2318 ft 139 kts 52°
2026-05-06 17:14 24.44310 117.98582 2304 ft 138 kts 52°
2026-05-06 17:14 24.44899 117.99411 2316 ft 139 kts 52°
2026-05-06 17:14 24.45500 118.00255 2314 ft 142 kts 53°
2026-05-06 17:15 24.46103 118.01102 2301 ft 140 kts 52°
2026-05-06 17:15 24.46699 118.01939 2194 ft 140 kts 52°
2026-05-06 17:15 24.47296 118.02777 2026 ft 139 kts 51°
2026-05-06 17:15 24.47882 118.03600 1841 ft 134 kts 51°
2026-05-06 17:16 24.48462 118.04415 1667 ft 137 kts 52°
2026-05-06 17:16 24.49040 118.05227 1475 ft 133 kts 51°
2026-05-06 17:16 24.49601 118.06014 1305 ft 131 kts 51°
2026-05-06 17:16 24.50166 118.06805 1133 ft 132 kts 51°
2026-05-06 17:17 24.50736 118.07605 979 ft 133 kts 52°
2026-05-06 17:17 24.51309 118.08411 794 ft 136 kts 53°
2026-05-06 17:17 24.51882 118.09216 628 ft 135 kts 53°
2026-05-06 17:17 24.52454 118.10024 450 ft 134 kts 53°
2026-05-06 17:18 24.53039 118.10833 268 ft 134 kts 53°
2026-05-06 17:18 24.53609 118.11643 99 ft 135 kts 53°
2026-05-06 17:18 24.54148 118.12399 51 ft 108 kts 52°
2026-05-06 17:18 24.54517 118.12918 50 ft 65 kts 52°
2026-05-06 17:19 24.54706 118.13179 49 ft 22 kts 51°
2026-05-06 17:19 24.54736 118.13219 47 ft 6 kts 51°
2026-05-06 17:19 24.54773 118.13270 48 ft 9 kts 51°
2026-05-06 17:19 24.54818 118.13332 49 ft 14 kts 51°
2026-05-06 17:20 24.54888 118.13448 49 ft 23 kts 65°
2026-05-06 17:20 24.54931 118.13604 48 ft 16 kts 81°
2026-05-06 17:20 24.54892 118.13721 47 ft 12 kts 141°
2026-05-06 17:20 24.54878 118.13733 47 ft 0 kts 142°
2026-05-06 17:21 24.54872 118.13738 47 ft 4 kts 143°
2026-05-06 17:21 24.54837 118.13767 46 ft 3 kts 143°
2026-05-06 17:21 24.54801 118.13796 47 ft 9 kts 143°
2026-05-06 17:22 24.54781 118.13824 47 ft 3 kts 87°
2026-05-06 17:22 24.54793 118.13853 45 ft 6 kts 66°
2026-05-06 17:22 24.54803 118.13875 45 ft 4 kts 71°
2026-05-06 17:22 24.54808 118.13894 46 ft 2 kts 76°
2026-05-06 17:23 24.54808 118.13897 46 ft 0 kts 77°